Location: Zilina
(0.0000°N, 18.7333°E)
Time: 00:26:29
(UTC+01:00)

ARIANE 5 R/B - Pass Details

Date: 19 February 2019
Orbit: 286 x 34151 km, 1.5° (Epoch: 19 March)

Event Time Altitude Azimuth Distance (km) Brightness Sun altitude
Rises 18:17:25 0° 271° (W) 9,030 10.1 -4.5°
Reaches altitude 10° 18:27:09 10° 271° (W) 4,862 8.2 -6.9°
Maximum altitude 18:36:19 84° 183° (S) 622 2.1 -9.2°
Enters shadow 18:38:34 13° 94° (E) 1,269 3.1 -9.7°
